RH
38 38 40 40 36 40 47 45 44 43 51 51 51 45 45 43 34 29 23 30 70 97 98 95 95 97 98 91 35 52 32 12 9 9 12 13 16 26 38 62 90 72 58 53 29 24 27
44 43 40 37 39 40 43 53 54 50 49 54 53 48 48 46 32 25 23 61 73 94 96 96 96 97 92 31 36 16 12 12 10 11 14 20 29 36 49 55 61 80 88 80 56 34 35
52 50 43 43 44 49 52 62 65 56 47 43 48 48 46 48 34 22 20 17 62 100 100 97 98 94 30 20 16 13 12 14 14 14 27 40 43 50 61 74 55 48 62 69 77 52 44
57 49 49 50 57 65 70 65 51 33 24 17 25 39 43 49 38 23 22 22 82 99 99 98 96 33 19 20 13 14 22 22 32 40 48 57 59 63 68 71 96 83 55 54 64 72 56
55 55 62 73 76 78 74 56 35 19 11 8 10 11 33 46 44 33 27 30 99 99 98 97 60 21 23 15 14 23 34 22 30 34 39 46 53 58 81 80 96 94 88 63 53 68 57
66 76 87 89 92 66 35 13 10 10 9 8 7 8 17 37 44 41 33 27 94 99 98 92 23 23 20 18 20 24 43 37 30 42 63 67 73 88 100 97 100 82 97 88 52 72 51
94 99 100 96 47 14 12 32 43 40 30 20 12 7 9 30 44 42 36 36 97 99 99 31 22 24 19 20 30 42 52 63 55 50 66 97 94 70 72 98 89 100 96 97 70 65 48
100 100 90 25 12 32 80 86 91 80 73 46 26 11 8 25 44 42 28 42 97 100 75 21 25 22 25 29 38 52 72 78 84 87 100 100 99 98 90 55 97 100 100 86 92 58 39
100 74 19 14 62 98 97 97 86 67 68 65 36 25 8 20 41 43 35 56 100 99 19 23 22 21 24 30 40 63 78 86 100 87 96 100 100 86 63 53 100 88 99 82 97 72 50
35 16 34 90 100 99 100 84 72 75 59 70 46 34 10 16 38 43 33 81 100 62 18 23 22 26 27 45 65 68 87 97 97 100 100 80 90 57 88 100 95 99 92 85 73 71 77
84 100 100 100 100 100 91 77 98 77 61 75 51 35 10 11 38 40 39 100 96 15 18 19 30 33 37 45 50 72 100 100 100 97 80 75 72 52 95 95 94 100 80 60 64 100 84
100 100 100 100 100 100 88 94 96 78 63 68 53 35 12 13 40 31 60 100 42 15 21 21 30 40 44 53 62 69 94 90 100 99 77 96 86 84 86 83 81 93 87 100 100 100 92
100 100 100 100 100 100 89 100 86 92 58 65 50 24 10 21 36 40 95 100 15 17 21 33 41 46 51 57 54 74 83 100 100 88 94 100 100 52 41 53 81 100 100 93 100 99 96
100 100 100 90 94 100 92 90 84 69 45 57 32 14 13 36 31 100 100 73 15 14 28 34 33 38 44 49 53 63 85 96 96 100 92 100 94 100 84 63 69 82 100 100 100 94 94
39 37 46 73 98 100 98 100 99 28 32 20 13 13 30 29 72 98 98 19 14 16 26 29 35 33 37 48 53 64 79 86 94 82 99 92 98 100 100 68 68 79 95 95 86 93 96
100 95 91 83 93 97 100 100 46 12 9 11 14 24 29 34 94 100 49 15 12 17 28 32 30 31 28 42 59 73 79 76 89 84 95 98 98 99 89 78 70 66 80 80 83 95 80
85 82 100 100 100 100 99 39 6 9 14 15 28 33 34 95 100 86 15 12 11 18 23 28 27 30 25 34 48 66 63 64 81 90 96 85 97 97 87 66 56 52 51 66 59 68 68
100 90 74 79 87 60 14 7 13 15 24 32 32 61 99 100 96 15 11 10 10 14 18 20 25 26 24 39 45 55 48 52 71 74 86 86 93 97 95 97 88 72 71 60 57 52 58
24 13 6 6 6 8 18 22 21 26 25 39 96 99 100 84 28 12 10 9 10 12 15 16 20 24 25 26 36 37 52 53 42 55 70 79 72 60 85 98 100 89 76 63 55 51 44
8 9 15 21 24 25 22 22 30 43 49 82 99 100 86 39 8 10 8 9 10 13 14 16 20 22 21 20 22 22 24 30 29 30 45 55 56 57 51 47 50 54 42 38 31 18 26
20 22 24 33 39 39 40 53 72 94 92 99 100 96 41 10 7 8 7 8 9 10 12 13 13 14 15 15 13 13 16 18 18 19 23 32 39 36 33 32 30 26 25 24 20 20 16
19 17 17 43 46 49 51 58 71 96 100 99 100 54 11 7 6 6 6 6 6 6 6 7 8 8 8 7 7 6 7 8 9 11 13 15 18 19 18 18 16 17 16 14 11 10 8
18 18 20 24 31 52 73 86 84 89 98 98 81 27 7 5 4 4 4 4 4 5 5 5 5 5 5 6 6 6 6 6 6 6 6 6 6 7 7 6 6 6 5 6 6 6 5
17 20 39 53 63 84 86 84 93 88 92 94 53 12 6 4 4 4 4 4 4 5 6 7 7 7 7 7 8 9 10 10 10 10 10 10 8 8 8 8 8 9 8 9 9 9 9
15 25 32 47 56 67 81 89 87 84 86 89 30 7 5 4 4 4 4 5 6 7 8 8 9 9 10 10 11 12 13 13 14 14 15 15 16 15 15 15 17 17 12 15 16 17 19
13 18 33 30 40 50 60 76 78 78 81 76 20 6 5 4 4 4 4 6 6 7 8 9 8 8 9 11 12 12 12 13 14 14 15 16 16 16 18 17 18 23 22 22 21 18 20
9 13 34 37 40 40 50 58 63 73 76 56 18 6 5 4 5 5 6 7 7 8 9 9 8 9 9 9 9 9 9 10 11 12 13 18 20 22 22 21 22 23 26 24 20 21 27
6 11 30 29 32 35 41 53 56 64 68 53 25 8 6 5 6 6 7 8 7 6 8 9 10 10 10 11 14 18 20 18 16 18 20 22 26 28 28 29 28 28 32 30 30 34 33
5 10 21 23 26 31 39 46 53 55 63 57 46 14 7 6 6 6 6 7 9 9 9 10 12 14 16 21 23 27 30 31 30 31 31 30 35 35 35 34 36 38 38 38 38 39 40
Wind_Speed
59 59 60 58 56 58 61 62 60 60 57 54 51 51 48 40 38 36 39 36 37 38 38 39 45 52 42 44 43 51 53 55 59 59 58 56 51 50 51 55 61 65 60 58 60 62 56
62 62 62 59 62 64 63 62 63 59 56 50 48 48 43 39 36 36 37 33 36 34 39 45 48 52 41 41 38 44 48 50 51 50 44 37 33 34 36 43 55 60 61 58 59 61 56
65 63 62 65 69 68 65 61 59 57 50 46 46 43 40 36 36 35 33 34 34 39 42 43 49 36 34 36 35 38 35 37 30 21 11 6 4 10 6 11 20 44 59 58 58 59 54
64 64 69 72 72 68 61 57 53 50 50 46 43 42 38 35 37 36 30 33 32 37 36 42 35 28 28 28 29 21 30 26 15 11 9 8 9 10 12 17 14 18 35 58 57 59 51
68 71 75 74 70 62 58 57 54 50 50 50 45 41 39 33 36 35 31 33 36 37 35 39 24 22 24 24 11 19 27 24 14 12 10 11 13 12 13 16 17 15 17 36 52 55 49
73 76 74 66 62 62 61 63 58 56 54 55 51 49 41 33 36 35 33 33 33 32 32 24 16 20 15 15 14 18 24 22 11 10 12 13 12 13 15 13 14 15 13 23 45 48 47
78 74 63 61 63 66 60 52 49 45 42 43 44 50 46 36 37 34 32 32 30 35 30 14 13 14 13 10 15 20 21 17 15 16 16 18 9 7 9 14 10 10 14 22 35 40 43
74 66 63 64 61 54 48 48 43 43 39 38 37 40 48 40 36 32 27 30 32 32 11 7 11 11 13 9 15 19 21 17 14 12 16 14 4 11 6 7 13 10 23 34 30 37 36
73 69 67 58 48 43 35 38 38 34 34 40 37 32 47 43 33 30 26 32 28 20 6 9 12 10 9 11 14 18 19 15 14 14 15 16 3 8 7 19 17 24 33 33 30 33 31
76 67 53 44 36 29 33 27 25 22 21 46 39 34 42 41 31 29 26 28 29 7 9 14 11 8 5 10 15 18 17 13 11 16 15 9 9 10 21 18 28 31 27 29 24 24 20
67 52 39 29 24 28 23 19 24 11 13 44 42 39 45 41 32 26 29 18 5 6 11 13 13 13 11 13 16 18 25 19 11 24 21 22 28 22 25 31 35 31 26 25 20 14 17
37 28 24 23 24 21 17 15 12 17 11 49 47 46 44 37 29 25 27 18 7 13 15 13 8 13 16 16 17 17 17 25 26 16 25 30 32 33 31 32 30 27 25 22 21 20 17
30 27 20 20 19 17 15 16 18 21 20 54 51 47 42 34 28 25 22 10 13 20 21 14 13 17 16 17 20 22 19 20 21 20 22 27 29 34 29 26 20 21 30 23 21 30 24
33 35 28 23 12 7 11 10 18 14 46 54 51 46 39 35 27 20 7 8 19 22 21 20 18 18 18 17 19 20 23 21 21 18 25 22 25 20 22 19 21 22 19 25 29 23 15
43 30 14 4 3 2 7 5 11 23 61 58 52 44 39 33 30 19 8 14 19 22 22 17 15 17 19 18 19 19 19 22 22 20 17 19 20 21 23 24 23 23 18 19 26 24 11
42 31 20 13 16 5 7 8 9 56 63 57 48 41 35 31 22 14 12 15 21 25 19 14 11 14 18 19 19 21 19 20 18 19 13 18 14 20 19 23 29 27 16 17 17 23 11
39 33 27 18 13 5 11 13 60 63 56 47 42 37 32 26 19 16 15 15 20 23 18 12 9 13 16 17 21 22 25 22 22 22 27 20 17 22 26 28 30 25 21 14 10 8 8
39 30 19 12 15 19 47 63 60 54 45 41 35 30 25 22 20 19 17 15 18 21 17 12 9 11 17 17 18 20 24 26 25 23 20 22 23 21 24 24 27 27 25 18 13 13 8
41 47 43 39 55 62 61 55 49 42 38 32 30 24 23 22 21 20 18 18 19 19 16 11 9 8 9 12 13 14 14 16 21 21 21 21 22 24 22 26 27 28 26 22 16 13 6
56 58 58 55 51 49 45 41 39 36 34 32 19 18 22 21 23 20 20 21 19 18 16 11 9 8 11 13 15 16 15 13 16 18 19 19 21 24 25 25 24 25 23 19 17 4 2
46 47 44 45 42 37 34 32 30 26 25 21 18 20 22 22 24 23 23 25 24 21 19 16 16 15 15 15 18 17 16 18 17 17 18 18 18 20 23 25 24 21 17 16 13 8 2
33 34 36 34 33 27 23 21 16 15 15 11 15 19 23 23 24 25 25 26 27 26 26 24 23 22 20 20 24 22 22 22 21 20 18 16 15 15 15 14 14 13 11 9 4 2 10
22 21 23 20 18 17 14 13 12 13 11 11 17 17 21 24 26 26 26 27 27 27 27 27 26 26 26 26 27 27 27 26 24 25 23 23 19 18 18 15 14 14 12 8 7 6 3
14 13 11 11 11 13 15 11 11 8 8 9 13 17 21 24 24 25 27 26 26 26 26 26 25 24 23 23 22 23 23 23 24 25 24 25 23 23 21 23 23 22 20 18 15 12 8
4 7 3 9 13 11 12 11 9 7 4 8 11 15 20 22 22 22 22 23 23 22 21 21 20 19 18 18 17 18 18 17 17 18 17 17 17 17 15 14 17 14 12 10 10 8 7
9 4 3 6 12 10 9 6 8 3 7 11 12 15 18 19 18 18 18 18 18 17 16 16 15 13 13 13 13 13 13 13 13 11 11 10 10 7 8 6 6 5 4 2 2 7 11
14 10 2 5 6 17 14 9 1 2 8 11 10 14 18 18 19 18 17 15 13 11 10 10 10 9 8 7 7 8 8 7 8 8 8 8 7 6 6 5 5 6 7 6 10 10 15
20 12 12 9 7 8 9 6 3 6 11 12 11 12 15 18 17 16 13 11 8 6 4 4 5 4 4 5 6 8 8 7 7 6 7 7 8 8 7 7 8 11 12 12 14 18 19
25 21 22 16 10 10 12 10 8 11 9 14 11 13 13 16 16 14 12 9 6 4 3 1 0 2 4 5 6 8 8 9 10 9 8 8 10 10 11 11 11 12 13 15 18 20 22
Wind_Direction
305 302 299 296 295 293 291 290 288 285 282 278 274 272 274 268 265 267 271 271 269 284 300 295 300 303 305 302 309 302 300 298 296 295 291 285 275 263 254 246 242 241 236 233 228 231 231
306 302 298 297 298 297 291 289 286 281 278 275 270 267 268 263 257 262 275 266 279 286 292 294 299 305 310 311 311 311 311 307 300 295 286 280 276 270 260 251 245 243 238 230 226 227 224
307 303 301 300 298 295 292 286 282 280 275 269 268 264 263 256 250 257 268 271 279 283 294 301 302 313 317 319 319 326 321 312 308 309 320 336 346 277 233 252 257 248 240 234 223 223 220
306 304 302 300 297 295 289 284 277 272 269 267 262 263 260 251 244 252 262 270 273 297 304 309 313 320 327 327 337 343 347 349 3 15 14 352 303 284 270 262 271 269 245 231 220 220 213
306 305 303 302 301 295 289 282 279 273 265 265 261 258 256 247 240 246 254 266 268 303 299 306 331 329 339 346 14 356 356 4 12 8 349 317 284 275 280 257 262 281 258 227 212 216 206
305 304 305 303 298 295 290 287 278 269 262 256 251 252 248 243 239 240 248 266 269 303 300 326 325 341 2 22 22 351 349 359 15 351 335 321 313 304 273 256 264 258 246 204 200 206 201
307 307 304 302 299 297 291 287 280 270 260 249 247 236 237 236 235 235 246 265 276 301 303 337 347 19 39 47 9 2 348 346 333 332 332 328 319 329 275 270 222 183 181 174 185 192 197
312 308 307 304 302 295 292 289 282 272 252 238 235 232 227 225 229 232 246 259 275 297 348 27 32 51 52 42 25 16 9 351 345 343 344 342 296 16 37 208 196 184 156 152 171 186 193
313 311 308 306 301 298 299 296 292 285 249 226 221 219 220 219 221 227 242 256 283 289 70 59 62 64 60 21 12 11 13 21 15 19 8 6 41 23 111 169 139 145 146 158 163 172 185
313 312 310 304 303 298 287 300 307 287 254 212 208 212 213 212 212 222 239 254 283 47 102 88 69 76 35 33 32 16 31 37 37 12 26 36 65 141 149 107 122 126 142 146 165 165 185
318 314 310 304 299 294 292 298 313 279 243 197 199 208 204 204 205 216 233 271 307 115 106 106 89 70 71 49 41 41 46 54 48 48 65 90 91 115 90 107 120 116 138 136 158 156 174
325 319 306 299 299 301 290 297 301 314 236 189 196 202 197 194 198 210 235 265 89 123 105 110 93 69 63 50 47 57 61 55 61 76 86 94 91 97 101 111 120 127 114 129 142 134 149
327 317 308 302 302 286 283 298 290 284 204 183 190 192 187 182 191 209 224 251 119 119 116 113 101 82 70 60 52 57 60 58 63 77 83 85 82 90 94 108 113 117 119 135 151 137 138
304 299 302 295 283 299 284 270 287 271 183 178 180 179 172 177 182 198 175 152 131 131 132 124 106 82 73 65 55 53 59 67 73 104 79 81 92 106 103 112 99 100 124 134 150 143 140
36 50 68 83 305 293 328 352 335 188 167 168 169 166 165 173 187 196 142 138 141 146 148 133 110 85 73 73 61 55 61 67 81 95 97 90 87 104 106 105 99 96 103 130 155 158 98
24 25 17 24 29 37 57 357 158 160 154 157 158 158 166 174 180 161 150 139 146 156 162 143 109 93 72 71 67 60 63 73 82 88 101 90 112 103 103 112 117 105 106 126 153 167 78
20 12 15 10 4 52 103 105 140 140 145 147 149 154 165 166 153 147 137 142 154 162 164 154 117 92 71 73 74 75 72 75 79 91 92 98 90 108 102 112 121 116 111 106 118 125 85
30 9 25 47 79 77 125 132 132 135 136 141 148 154 153 144 138 135 132 139 159 168 172 160 127 94 69 76 80 87 82 77 74 81 92 98 100 106 116 116 122 124 118 114 122 133 108
49 63 68 92 112 115 114 113 119 124 134 142 138 141 138 134 130 128 134 141 154 163 163 158 133 104 56 72 79 77 87 82 76 79 89 104 110 105 108 111 122 120 117 113 107 113 119
75 88 91 94 94 100 105 115 127 135 137 144 134 121 127 128 124 130 133 135 141 142 138 132 116 85 69 78 80 79 77 70 78 87 97 107 110 114 115 114 118 119 114 112 107 88 112
79 86 90 101 102 104 110 122 128 135 142 136 122 133 129 127 129 129 128 125 130 130 124 118 109 98 90 87 83 79 80 79 80 86 92 97 108 108 112 116 117 116 115 119 118 126 246
74 80 86 105 111 115 123 127 132 104 111 115 122 128 123 127 129 129 128 125 120 115 111 107 103 98 93 89 84 81 79 80 81 83 89 93 95 94 89 88 94 107 111 107 109 299 287
84 78 84 93 102 106 111 94 94 90 90 120 128 123 126 132 134 133 127 119 113 108 105 103 101 98 95 93 92 91 90 88 86 87 86 87 88 87 89 82 84 91 92 86 86 92 105
84 87 95 91 66 66 55 77 80 59 84 115 124 126 132 135 136 134 128 124 119 115 112 107 103 100 100 96 93 91 90 90 92 95 93 93 97 99 101 104 105 109 114 117 118 124 136
92 134 42 14 7 20 35 37 44 35 108 143 128 134 135 132 131 130 130 128 122 117 113 108 105 102 98 94 92 87 83 79 78 82 85 87 90 96 100 102 102 112 134 139 143 156 169
297 184 242 354 5 356 348 17 27 72 138 153 141 143 143 140 140 139 135 131 127 125 118 110 106 101 96 92 83 77 72 68 64 64 59 62 61 69 66 69 72 51 55 26 312 272 291
267 286 212 268 333 325 322 331 38 182 173 159 161 154 150 149 149 146 144 140 133 128 110 104 106 102 88 77 68 60 53 56 41 35 26 26 20 10 4 343 320 318 322 306 279 285 286
265 252 244 258 300 259 291 302 235 201 189 178 179 174 166 162 162 157 158 153 148 141 127 108 96 80 63 44 34 28 21 17 11 13 2 352 346 337 331 325 316 309 304 296 288 294 293
246 241 245 247 273 254 244 247 235 219 214 202 205 200 192 184 179 178 175 176 173 171 173 162 11 6 18 20 18 17 12 10 5 3 0 353 344 333 333 322 310 303 306 305 299 298 296